Find Starlink 32289

NORAD ID: 60737 Int'l Des: 2024-152 Owner: SPXS Country: US Constellation: starlink operational
LEOCIRCULAR

当前视图

正在加载3D地球...

About Starlink 32289

Starlink 32289 (NORAD 60737) is a starlink constellation satellite (v2 mini) launched Aug 28, 2024 by SPXS of US. It operates in LEO, CIRCULAR orbit with a mass of 730.00 kg.

关于 Starlink 32289

正在加载描述...

即将过境

Passes for default location (London). Set your location on the main map for personalized predictions.

高度历史

Loading altitude history...

两行轨道根数

1 60737U 24152T 26173.62634776 -.00000209 00000-0 50683-5 0 9996
2 60737 53.1596 141.2561 0001391 93.2532 266.8628 15.30188716102913
Epoch: Jun 22, 2026 • Age: 17 hours

当前状态

高度 493.0 km
速度 7.62 km/s
星下点 -48.86°S, 48.38°E
发射日期 Aug 28, 2024
运行时间 1.8 years
类型 internet

技术详情

分类 Payload
质量 730.00 kg
干质量 700.00 kg
总质量 730.00 kg
长度 0.30 m
直径 4.10 m
跨度 29.00 m
形状 Box + pan
制造商 SPXS
平台类型 Starlink V2M
阶段状态 In Orbit
所有者/国家 SPXS/US

Most Searched